DW0268 Weather Reports


Display with metric or nautical units.
time (UTC)temp
F
wind
direction
speed
MPH
gust
MPH
rain 1hr
in
rain 24hr
in
rain mn
in
humidity
%
barometer
mb
20260902013003 88 112 2.0 4.0 0.00 0.00 0.00 71 1018.2
20260902011507 88 115 2.0 4.0 0.00 0.00 0.00 72 1018.1
20260902010000 89 113 2.0 6.0 0.00 0.00 0.00 71 1018.5
20260902004602 90 114 3.0 6.0 0.00 0.00 0.00 68 1017.8
20260902003101 91 97 2.0 4.0 0.00 0.00 0.00 67 1017.8
20260902001559 92 109 2.0 4.0 0.00 0.00 0.00 65 1017.8
20260902000057 93 108 1.0 3.0 0.00 0.00 0.00 62 1017.8
20260901234556 94 107 1.0 3.0 0.00 0.00 0.00 60 1017.9
20260901233102 95 111 2.0 6.0 0.00 0.00 0.00 59 1018.0
20260901231557 95 122 2.0 6.0 0.00 0.00 0.00 57 1018.1
20260901230055 95 122 3.0 5.0 0.00 0.00 0.00 58 1018.2
20260901224556 95 127 4.0 8.0 0.00 0.00 0.00 58 1018.2
20260901223055 96 116 5.0 11.0 0.00 0.00 0.00 56 1018.0
20260901221549 96 138 3.0 8.0 0.00 0.00 0.00 55 1018.1
20260901220046 97 113 3.0 9.0 0.00 0.00 0.00 53 1018.1
20260901214546 96 178 3.0 9.0 0.00 0.00 0.00 54 1018.2
20260901213045 97 152 5.0 10.0 0.00 0.00 0.00 54 1018.0
20260901211544 97 170 4.0 10.0 0.00 0.00 0.00 56 1018.2
20260901210043 96 146 3.0 10.0 0.00 0.00 0.00 55 1018.2
20260901204541 97 122 5.0 11.0 0.00 0.00 0.00 55 1018.3
20260901203043 97 186 5.0 10.0 0.00 0.00 0.00 54 1018.3
20260901201539 97 114 5.0 11.0 0.00 0.00 0.00 54 1018.4
20260901200044 97 165 4.0 10.0 0.00 0.00 0.00 57 1018.5
20260901194551 96 213 6.0 10.0 0.00 0.00 0.00 56 1018.7
20260901193035 96 177 4.0 11.0 0.00 0.00 0.00 54 1018.9
20260901191535 96 226 4.0 10.0 0.00 0.00 0.00 57 1019.2
20260901190043 96 151 0.0 5.0 0.00 0.00 0.00 56 1019.3
20260901184532 97 157 4.0 13.0 0.00 0.00 0.00 56 1019.4
20260901183028 95 148 3.0 9.0 0.00 0.00 0.00 59 1019.7
20260901181535 95 190 5.0 11.0 0.00 0.00 0.00 60 1019.8
20260901180033 94 236 4.0 8.0 0.00 0.00 0.00 61 1019.9
20260901174525 95 236 3.0 7.0 0.00 0.00 0.00 60 1020.1
20260901173022 94 240 6.0 10.0 0.00 0.00 0.00 61 1020.2
20260901171521 93 271 6.0 10.0 0.00 0.00 0.00 61 1020.5
20260901170028 93 197 5.0 10.0 0.00 0.00 0.00 64 1020.8
20260901164516 92 255 2.0 9.0 0.00 0.00 0.00 63 1020.8
20260901163018 92 190 2.0 9.0 0.00 0.00 0.00 66 1020.9
20260901161509 91 215 5.0 10.0 0.00 0.00 0.00 67 1021.1
20260901160005 91 248 5.0 9.0 0.00 0.00 0.00 70 1021.1
20260901154501 90 222 6.0 11.0 0.00 0.00 0.00 70 1021.3
20260901153122 89 216 6.0 10.0 0.00 0.00 0.00 72 1021.1
20260901151555 89 228 5.0 10.0 0.00 0.00 0.00 74 1021.2
20260901150052 88 218 4.0 9.0 0.00 0.00 0.00 76 1021.3
20260901144551 87 206 5.0 8.0 0.00 0.00 0.00 78 1021.3
20260901143049 85 240 3.0 4.0 0.00 0.00 0.00 81 1021.2
20260901141543 83 223 2.0 5.0 0.00 0.00 0.00 84 1021.4
20260901140037 82 213 2.0 5.0 0.00 0.00 0.00 87 1021.4
20260901134534 80 218 3.0 5.0 0.00 0.00 0.00 88 1021.3
20260901133038 79 219 3.0 5.0 0.00 0.00 0.00 90 1021.3
20260901131536 77 222 2.0 5.0 0.00 0.00 0.00 92 1021.3
20260901130030 76 222 3.0 5.0 0.00 0.00 0.00 93 1021.4
20260901124531 76 194 2.0 5.0 0.00 0.00 0.00 94 1021.3
20260901123038 74 164 1.0 3.0 0.00 0.00 0.00 94 1021.3
20260901121528 74 164 1.0 3.0 0.00 0.00 0.00 93 1021.1
20260901120024 73 164 1.0 3.0 0.00 0.00 0.00 93 1020.9
20260901114522 74 163 0.0 2.0 0.00 0.00 0.00 92 1020.6
20260901113021 74 163 1.0 2.0 0.00 0.00 0.00 92 1020.4
20260901111519 74 163 1.0 5.0 0.00 0.00 0.00 92 1020.2
20260901110021 74 164 1.0 4.0 0.00 0.00 0.00 92 1020.1
20260901104525 74 156 2.0 5.0 0.00 0.00 0.00 92 1020.1
20260901103015 74 164 1.0 3.0 0.00 0.00 0.00 91 1020.0
20260901101514 74 161 2.0 4.0 0.00 0.00 0.00 91 1020.0
20260901100013 75 160 1.0 3.0 0.00 0.00 0.00 91 1020.0
20260901094512 75 161 0.0 0.0 0.00 0.00 0.00 91 1019.9
20260901093012 74 161 0.0 0.0 0.00 0.00 0.00 91 1019.8
20260901091512 75 160 0.0 1.0 0.00 0.00 0.00 92 1019.7
20260901090010 74 161 0.0 0.0 0.00 0.00 0.00 92 1019.6
20260901084508 75 161 1.0 2.0 0.00 0.00 0.00 91 1019.6
20260901083023 75 160 2.0 3.0 0.00 0.00 0.00 91 1019.5
20260901081506 75 160 1.0 2.0 0.00 0.00 0.00 91 1019.3
20260901080005 75 160 0.0 1.0 0.00 0.00 0.00 91 1019.1
20260901074508 75 160 1.0 2.0 0.00 0.00 0.00 90 1019.2
20260901073006 76 160 1.0 2.0 0.00 0.00 0.00 90 1019.0
20260901071502 76 160 1.0 3.0 0.00 0.00 0.00 90 1019.1
20260901070100 76 159 0.0 3.0 0.00 0.00 0.00 90 1018.8
20260901064559 76 159 2.0 3.0 0.00 0.00 0.00 90 1018.8
20260901063101 76 158 1.0 3.0 0.00 0.00 0.00 89 1019.2
20260901061601 76 146 1.0 3.0 0.00 0.00 0.00 88 1019.2
20260901060054 76 129 1.0 2.0 0.00 0.00 0.00 88 1019.2
20260901054552 77 129 0.0 1.0 0.00 0.00 0.00 86 1019.3
20260901053117 78 128 1.0 3.0 0.00 0.00 0.00 86 1019.2
20260901051548 78 127 2.0 4.0 0.00 0.00 0.00 84 1019.1
20260901050046 79 128 3.0 4.0 0.00 0.00 0.00 82 1019.3
20260901044542 81 104 1.0 4.0 0.00 0.00 0.00 81 1019.3
20260901043042 81 101 0.0 3.0 0.00 0.00 0.00 80 1019.3
20260901041542 81 113 3.0 4.0 0.00 0.00 0.00 78 1019.3
20260901040040 82 134 1.0 3.0 0.00 0.00 0.00 78 1019.2
20260901034539 82 137 2.0 5.0 0.00 0.00 0.00 76 1019.3
20260901033045 82 131 3.0 4.0 0.00 0.00 0.00 78 1019.4
20260901031548 82 113 1.0 2.0 0.00 0.00 0.00 79 1019.4
20260901030038 82 113 1.0 4.0 0.00 0.00 0.00 79 1019.4
20260901024537 83 101 1.0 3.0 0.00 0.00 0.00 79 1019.4
20260901023041 83 101 0.0 4.0 0.00 0.00 0.00 79 1019.3
20260901021537 84 119 1.0 3.0 0.00 0.00 0.00 79 1019.1
20260901020037 84 115 2.0 3.0 0.00 0.00 0.00 78 1018.8
20260901014537 84 111 0.0 1.0 0.00 0.00 0.00 77 1018.7